YO4FZV-11 Weather Reports


time (UTC)temp
C
wind
direction
speed
KPH
gust
KPH
rain 1hr
cm
rain 24hr
cm
rain mn
cm
humidity
%
barometer
mb
20260507041255 10 225 0.0 1.6 0.00 0.00 0.00 89 1015.4
20260507040755 10 202 0.0 1.6 0.00 0.00 0.00 89 1015.4
20260507040255 10 225 0.0 1.6 0.00 0.00 0.00 89 1015.4
20260507035755 10 225 0.0 3.2 0.00 0.00 0.00 89 1015.4
20260507035255 10 247 0.0 3.2 0.00 0.00 0.00 90 1015.3
20260507034755 10 202 3.2 8.0 0.00 0.00 0.00 90 1015.3
20260507034255 10 202 3.2 6.4 0.00 0.00 0.00 90 1015.2
20260507033755 10 225 3.2 8.0 0.00 0.00 0.00 90 1015.1
20260507033255 10 225 3.2 8.0 0.00 0.00 0.00 90 1015.1
20260507032755 10 270 0.0 4.8 0.00 0.00 0.00 90 1015.0
20260507032255 10 225 1.6 6.4 0.00 0.00 0.00 91 1015.1
20260507031755 10 225 3.2 9.7 0.00 0.00 0.00 91 1015.0
20260507031255 9 180 9.7 12.9 0.00 0.00 0.00 91 1014.9
20260507030755 9 202 9.7 12.9 0.00 0.00 0.00 91 1014.8
20260507030255 9 202 11.3 16.1 0.00 0.00 0.00 91 1014.8
20260507025755 9 202 8.0 14.5 0.00 0.00 0.00 92 1014.7
20260507025255 10 180 4.8 6.4 0.00 0.00 0.00 92 1014.7
20260507024755 9 157 3.2 12.9 0.00 0.00 0.00 92 1014.7
20260507024255 9 202 6.4 9.7 0.00 0.00 0.00 92 1014.7
20260507023755 9 180 6.4 14.5 0.00 0.00 0.00 92 1014.7
20260507023255 9 202 6.4 9.7 0.00 0.00 0.00 92 1014.7
20260507022756 10 202 4.8 12.9 0.00 0.00 0.00 92 1014.7
20260507022256 10 202 8.0 11.3 0.00 0.00 0.00 92 1014.7
20260507021755 9 202 3.2 9.7 0.00 0.00 0.00 93 1014.6
20260507021256 9 202 6.4 8.0 0.00 0.00 0.00 93 1014.6
20260507020756 9 225 4.8 9.7 0.00 0.00 0.00 93 1014.6
20260507020256 9 202 8.0 8.0 0.00 0.00 0.00 93 1014.6
20260507015756 9 157 1.6 14.5 0.00 0.00 0.00 93 1014.6
20260507015256 9 202 4.8 6.4 0.00 0.00 0.00 93 1014.5
20260507014756 9 202 6.4 11.3 0.00 0.00 0.00 93 1014.5
20260507014256 9 225 8.0 8.0 0.00 0.00 0.00 93 1014.5
20260507013756 9 202 3.2 9.7 0.00 0.00 0.00 93 1014.5
20260507013256 8 157 8.0 8.0 0.00 0.00 0.00 93 1014.6
20260507012756 8 202 0.0 1.6 0.00 0.00 0.00 93 1014.6
20260507012256 8 225 0.0 0.0 0.00 0.00 0.00 93 1014.5
20260507011756 8 247 0.0 0.0 0.00 0.00 0.00 93 1014.5
20260507011256 8 270 0.0 91.7 0.00 0.00 0.00 93 1014.5
20260507010756 8 180 91.7 91.7 0.00 0.00 0.00 93 1014.5
20260507010256 8 225 3.2 3.2 0.00 0.00 0.00 93 1014.5
20260507005756 8 225 1.6 1.6 0.00 0.00 0.00 93 1014.5
20260507005256 8 225 1.6 3.2 0.00 0.00 0.00 93 1014.5
20260507004756 8 202 3.2 3.2 0.00 0.00 0.00 93 1014.5
20260507004256 8 247 0.0 3.2 0.00 0.00 0.00 93 1014.3
20260507003756 8 247 0.0 3.2 0.00 0.00 0.00 93 1014.3
20260507003256 8 247 3.2 3.2 0.00 0.00 0.00 93 1014.3
20260507002756 8 202 3.2 4.8 0.00 0.00 0.00 93 1014.3
20260507002256 8 202 1.6 3.2 0.00 0.00 0.00 93 1014.2
20260507001756 7 202 3.2 3.2 0.00 0.00 0.00 93 1014.2
20260507001256 8 202 0.0 0.0 0.00 0.00 0.00 93 1014.3
20260507000756 8 202 0.0 3.2 0.00 0.00 0.00 93 1014.3
20260507000256 9 202 3.2 3.2 0.00 0.00 0.00 93 1014.3
20260506235756 9 202 3.2 3.2 0.00 0.00 0.00 93 1014.3
20260506235256 9 202 3.2 8.0 0.00 0.00 0.00 93 1014.3
20260506234756 8 225 6.4 11.3 0.00 0.00 0.00 92 1014.3
20260506234256 8 180 3.2 3.2 0.00 0.00 0.00 92 1014.4
20260506233756 8 225 1.6 1.6 0.00 0.00 0.00 92 1014.4
20260506233256 8 202 0.0 3.2 0.00 0.00 0.00 92 1014.4
20260506232756 7 202 3.2 3.2 0.00 0.00 0.00 92 1014.4
20260506232256 7 180 0.0 3.2 0.00 0.00 0.00 92 1014.5
20260506231756 7 247 0.0 0.0 0.00 0.00 0.00 92 1014.4
20260506231256 7 225 0.0 1.6 0.00 0.00 0.00 92 1014.5
20260506230756 7 225 0.0 3.2 0.00 0.00 0.00 92 1014.5
20260506230256 7 225 3.2 3.2 0.00 0.00 0.00 92 1014.5
20260506225756 7 247 1.6 3.2 0.00 0.00 0.00 92 1014.5
20260506225256 7 202 0.0 4.8 0.00 0.00 0.00 91 1014.5
20260506224756 7 247 1.6 1.6 0.00 0.00 0.00 92 1014.6
20260506224256 7 247 1.6 1.6 0.00 0.00 0.00 91 1014.6
20260506223756 7 247 1.6 3.2 0.00 0.00 0.00 91 1014.8
20260506223256 7 225 0.0 1.6 0.00 0.00 0.00 91 1014.6
20260506222756 7 247 0.0 0.0 0.00 0.00 0.00 91 1014.6
20260506222256 8 247 0.0 0.0 0.00 0.00 0.00 91 1014.6
20260506221756 8 247 0.0 3.2 0.00 0.00 0.00 91 1014.7
20260506221256 8 270 0.0 1.6 0.00 0.00 0.00 92 1014.6
20260506220756 9 247 0.0 3.2 0.00 0.00 0.00 92 1014.6
20260506220256 10 225 3.2 6.4 0.00 0.00 0.00 92 1014.6
20260506215756 10 202 6.4 6.4 0.00 0.00 0.00 92 1014.6
20260506215256 10 202 3.2 9.7 0.00 0.00 0.00 92 1014.6
20260506214756 10 202 9.7 9.7 0.00 0.00 0.00 92 1014.6
20260506214256 10 202 4.8 8.0 0.00 0.00 0.00 92 1014.6
20260506213756 10 180 3.2 8.0 0.00 0.00 0.00 92 1014.5
20260506213256 10 202 3.2 8.0 0.00 0.00 0.00 92 1014.5
20260506212756 10 202 8.0 8.0 0.00 0.00 0.00 92 1014.5
20260506212256 10 180 3.2 3.2 0.00 0.00 0.00 92 1014.5
20260506211756 10 180 3.2 8.0 0.00 0.00 0.00 92 1014.4
20260506211256 10 180 3.2 6.4 0.00 0.00 0.00 92 1014.4
20260506210756 10 157 6.4 6.4 0.00 0.00 0.00 92 1014.4
20260506210256 10 180 6.4 8.0 0.00 0.00 0.00 92 1014.5
20260506205756 10 135 3.2 8.0 0.00 0.00 0.00 92 1014.5
20260506205256 10 202 6.4 9.7 0.00 0.00 0.00 91 1014.5
20260506204756 10 202 4.8 4.8 0.00 0.00 0.00 91 1014.5
20260506204256 11 157 3.2 12.9 0.00 0.00 0.00 91 1014.4
20260506203756 11 180 3.2 12.9 0.00 0.00 0.00 91 1014.4
20260506203256 11 157 4.8 11.3 0.00 0.00 0.00 91 1014.5
20260506202756 10 157 8.0 11.3 0.00 0.00 0.00 91 1014.5
20260506202256 10 135 8.0 9.7 0.00 0.00 0.00 91 1014.6
20260506201756 10 180 4.8 14.5 0.00 0.00 0.00 91 1014.6
20260506201256 10 180 6.4 9.7 0.00 0.00 0.00 91 1014.5
20260506200756 10 180 4.8 9.7 0.00 0.00 0.00 91 1014.4
20260506200256 10 202 1.6 9.7 0.00 0.00 0.00 91 1014.5
20260506195756 10 157 6.4 9.7 0.00 0.00 0.00 90 1014.5
20260506195256 10 180 6.4 9.7 0.00 0.00 0.00 90 1014.5
20260506194756 11 180 3.2 14.5 0.00 0.00 0.00 90 1014.5
20260506194256 11 202 8.0 8.0 0.00 0.00 0.00 90 1014.5
20260506193756 11 157 4.8 8.0 0.00 0.00 0.00 90 1014.5
20260506193256 11 180 4.8 8.0 0.00 0.00 0.00 90 1014.5
20260506192756 11 157 4.8 8.0 0.00 0.00 0.00 90 1014.5
20260506192256 11 157 4.8 9.7 0.00 0.00 0.00 89 1014.5
20260506191756 11 135 6.4 12.9 0.00 0.00 0.00 89 1014.5
20260506191256 11 180 4.8 9.7 0.00 0.00 0.00 89 1014.6
20260506190756 11 157 4.8 12.9 0.00 0.00 0.00 89 1014.6
20260506190256 11 157 9.7 11.3 0.00 0.00 0.00 89 1014.6
20260506185756 11 202 9.7 9.7 0.00 0.00 0.00 88 1014.5
20260506185256 11 135 4.8 9.7 0.00 0.00 0.00 88 1014.4
20260506184756 11 202 4.8 12.9 0.00 0.00 0.00 88 1014.5
20260506184256 11 180 6.4 9.7 0.00 0.00 0.00 88 1014.5
20260506183756 11 157 1.6 9.7 0.00 0.00 0.00 88 1014.5
20260506183256 11 157 6.4 11.3 0.00 0.00 0.00 88 1014.4
20260506182756 11 180 4.8 9.7 0.00 0.00 0.00 87 1014.4
20260506182256 11 157 8.0 11.3 0.00 0.00 0.00 87 1014.3
20260506181756 11 157 6.4 9.7 0.00 0.00 0.00 87 1014.3
20260506181256 11 180 6.4 9.7 0.00 0.00 0.00 86 1014.2
20260506180756 11 180 3.2 9.7 0.00 0.00 0.00 86 1014.2
20260506180256 11 157 4.8 12.9 0.00 0.00 0.00 85 1014.1
20260506175756 11 180 4.8 9.7 0.00 0.00 0.00 85 1014.1
20260506175256 11 180 3.2 9.7 0.00 0.00 0.00 84 1014.0
20260506174756 11 180 3.2 9.7 0.00 0.00 0.00 84 1013.9
20260506174256 12 157 3.2 9.7 0.00 0.00 0.00 84 1013.9
20260506173756 12 157 6.4 11.3 0.00 0.00 0.00 83 1013.7
20260506173256 12 157 9.7 12.9 0.00 0.00 0.00 83 1013.7
20260506172756 12 157 4.8 12.9 0.00 0.00 0.00 82 1013.7
20260506172256 12 157 9.7 11.3 0.00 0.00 0.00 82 1013.8
20260506171756 12 157 6.4 8.0 0.00 0.00 0.00 82 1013.8
20260506171256 12 157 3.2 9.7 0.00 0.00 0.00 82 1013.9
20260506170756 12 157 3.2 9.7 0.00 0.00 0.00 81 1013.8
20260506170256 12 135 4.8 9.7 0.00 0.00 0.00 81 1013.9
20260506165756 12 135 4.8 6.4 0.00 0.00 0.00 79 1013.8
20260506165256 13 157 6.4 9.7 0.00 0.00 0.00 79 1013.7
20260506164756 13 157 4.8 12.9 0.00 0.00 0.00 78 1013.8
20260506164256 13 157 8.0 9.7 0.00 0.00 0.00 78 1013.8
20260506163756 13 180 4.8 12.9 0.00 0.00 0.00 77 1013.7
20260506163256 14 135 6.4 8.0 0.00 0.00 0.00 76 1013.7
20260506162756 15 157 4.8 9.7 0.00 0.00 0.00 76 1013.7
20260506162256 15 157 4.8 8.0 0.00 0.00 0.00 75 1013.7
20260506161756 15 180 4.8 9.7 0.00 0.00 0.00 75 1013.7
20260506161256 15 157 4.8 11.3 0.00 0.00 0.00 74 1013.7
20260506160756 15 157 11.3 11.3 0.00 0.00 0.00 74 1013.7
20260506160256 15 180 3.2 14.5 0.00 0.00 0.00 73 1013.7
20260506155756 15 180 9.7 11.3 0.00 0.00 0.00 73 1013.7
20260506155256 15 157 6.4 12.9 0.00 0.00 0.00 72 1013.7
20260506154756 15 157 4.8 12.9 0.00 0.00 0.00 72 1013.7
20260506154256 15 157 6.4 12.9 0.00 0.00 0.00 71 1013.8
20260506153756 15 157 6.4 9.7 0.00 0.00 0.00 72 1013.8
20260506153256 15 135 9.7 11.3 0.00 0.00 0.00 72 1013.7
20260506152756 16 157 4.8 12.9 0.00 0.00 0.00 71 1013.7
20260506152256 16 135 4.8 12.9 0.00 0.00 0.00 71 1013.8
20260506151756 16 180 4.8 14.5 0.00 0.00 0.00 72 1013.9
20260506151256 16 157 6.4 14.5 0.00 0.00 0.00 71 1013.9
20260506150756 16 112 9.7 12.9 0.00 0.00 0.00 71 1013.9
20260506150303 16 135 8.0 14.5 0.00 0.00 0.00 71 1013.9
20260506145756 16 157 14.5 14.5 0.00 0.00 0.00 71 1014.0
20260506145256 16 157 12.9 17.7 0.00 0.00 0.00 69 1013.9
20260506144756 16 157 8.0 16.1 0.00 0.00 0.00 69 1013.9
20260506144256 16 180 14.5 16.1 0.00 0.00 0.00 68 1014.0
20260506143757 16 157 11.3 17.7 0.00 0.00 0.00 68 1013.9
20260506143257 16 180 8.0 16.1 0.00 0.00 0.00 68 1013.9
20260506142756 16 157 8.0 17.7 0.00 0.00 0.00 67 1013.9
20260506142257 16 157 8.0 12.9 0.00 0.00 0.00 68 1013.9
20260506141756 16 135 9.7 17.7 0.00 0.00 0.00 69 1013.9
20260506141257 17 135 8.0 16.1 0.00 0.00 0.00 69 1014.0
20260506140757 17 157 11.3 16.1 0.00 0.00 0.00 68 1014.1
20260506140257 17 135 12.9 16.1 0.00 0.00 0.00 68 1014.0
20260506135757 17 157 8.0 17.7 0.00 0.00 0.00 67 1014.0
20260506135257 17 157 12.9 17.7 0.00 0.00 0.00 67 1014.0
20260506134757 17 157 8.0 17.7 0.00 0.00 0.00 67 1014.1
20260506134257 17 135 11.3 17.7 0.00 0.00 0.00 66 1014.1
20260506133757 17 180 9.7 19.3 0.00 0.00 0.00 67 1014.1
20260506133257 17 157 12.9 17.7 0.00 0.00 0.00 67 1014.1
20260506132757 17 157 11.3 17.7 0.00 0.00 0.00 65 1014.0
20260506132257 17 135 12.9 19.3 0.00 0.00 0.00 65 1014.1
20260506131757 17 157 11.3 16.1 0.00 0.00 0.00 64 1014.1
20260506131257 18 157 12.9 19.3 0.00 0.00 0.00 62 1014.0
20260506130757 18 157 6.4 12.9 0.00 0.00 0.00 63 1014.1
20260506130257 18 157 6.4 19.3 0.00 0.00 0.00 63 1014.1
20260506125757 18 157 14.5 14.5 0.00 0.00 0.00 61 1014.1
20260506125257 18 135 6.4 16.1 0.00 0.00 0.00 61 1014.2
20260506124757 18 157 6.4 22.5 0.00 0.00 0.00 59 1014.2
20260506124257 18 180 14.5 16.1 0.00 0.00 0.00 60 1014.2
20260506123757 19 157 12.9 16.1 0.00 0.00 0.00 59 1014.2
20260506123257 19 135 6.4 12.9 0.00 0.00 0.00 60 1014.2
20260506122757 19 135 6.4 17.7 0.00 0.00 0.00 60 1014.3
20260506122257 19 157 6.4 12.9 0.00 0.00 0.00 59 1014.3
20260506121757 20 135 8.0 16.1 0.00 0.00 0.00 60 1014.3
20260506121257 20 157 8.0 14.5 0.00 0.00 0.00 59 1014.5
20260506120757 20 135 8.0 17.7 0.00 0.00 0.00 59 1014.4
20260506120257 20 180 12.9 12.9 0.00 0.00 0.00 59 1014.4
20260506115757 20 157 6.4 16.1 0.00 0.00 0.00 59 1014.5
20260506115257 20 157 6.4 14.5 0.00 0.00 0.00 58 1014.5
20260506114757 20 157 6.4 17.7 0.00 0.00 0.00 57 1014.5
20260506114257 20 180 11.3 17.7 0.00 0.00 0.00 56 1014.5
20260506113757 20 135 11.3 14.5 0.00 0.00 0.00 56 1014.5
20260506113257 20 157 12.9 19.3 0.00 0.00 0.00 56 1014.5
20260506112757 20 157 6.4 16.1 0.00 0.00 0.00 54 1014.6
20260506112257 20 135 9.7 16.1 0.00 0.00 0.00 56 1014.6
20260506111757 21 135 16.1 17.7 0.00 0.00 0.00 56 1014.7
20260506111257 21 157 12.9 17.7 0.00 0.00 0.00 55 1014.8
20260506110757 21 157 9.7 14.5 0.00 0.00 0.00 58 1014.7
20260506110257 20 135 14.5 14.5 0.00 0.00 0.00 57 1014.8
20260506105757 20 157 8.0 17.7 0.00 0.00 0.00 56 1014.7
20260506105257 20 180 9.7 16.1 0.00 0.00 0.00 56 1014.7
20260506104757 20 157 12.9 16.1 0.00 0.00 0.00 57 1014.8
20260506104257 20 135 6.4 16.1 0.00 0.00 0.00 56 1014.7
20260506103757 20 157 14.5 17.7 0.00 0.00 0.00 57 1014.8
20260506103257 20 157 9.7 12.9 0.00 0.00 0.00 57 1014.8
20260506102757 20 135 8.0 16.1 0.00 0.00 0.00 57 1014.7
20260506102257 20 135 9.7 14.5 0.00 0.00 0.00 57 1014.7
20260506101757 20 157 3.2 14.5 0.00 0.00 0.00 59 1014.7
20260506101257 20 180 6.4 17.7 0.00 0.00 0.00 59 1014.7
20260506100757 20 157 11.3 17.7 0.00 0.00 0.00 59 1014.7
20260506100257 20 135 8.0 16.1 0.00 0.00 0.00 60 1014.6
20260506095757 20 157 9.7 16.1 0.00 0.00 0.00 60 1014.6
20260506095257 20 157 12.9 16.1 0.00 0.00 0.00 59 1014.5
20260506094757 20 180 11.3 14.5 0.00 0.00 0.00 60 1014.6
20260506094257 20 180 11.3 16.1 0.00 0.00 0.00 59 1014.7
20260506093757 20 157 3.2 16.1 0.00 0.00 0.00 60 1014.6
20260506093257 20 135 8.0 14.5 0.00 0.00 0.00 60 1014.7
20260506092757 20 135 8.0 19.3 0.00 0.00 0.00 59 1014.7
20260506092257 20 135 11.3 14.5 0.00 0.00 0.00 58 1014.7
20260506091757 20 157 9.7 16.1 0.00 0.00 0.00 59 1014.6
20260506091257 20 157 6.4 14.5 0.00 0.00 0.00 60 1014.6
20260506090757 20 157 8.0 14.5 0.00 0.00 0.00 59 1014.6
20260506090257 20 157 11.3 16.1 0.00 0.00 0.00 60 1014.6
20260506085757 20 157 8.0 14.5 0.00 0.00 0.00 60 1014.5
20260506085257 20 135 8.0 12.9 0.00 0.00 0.00 59 1014.5
20260506084757 20 157 6.4 17.7 0.00 0.00 0.00 59 1014.5
20260506084257 21 180 8.0 12.9 0.00 0.00 0.00 59 1014.4
20260506083757 21 112 4.8 16.1 0.00 0.00 0.00 58 1014.4
20260506083257 21 180 6.4 11.3 0.00 0.00 0.00 59 1014.4
20260506082757 21 180 6.4 14.5 0.00 0.00 0.00 58 1014.4
20260506082257 21 157 4.8 14.5 0.00 0.00 0.00 59 1014.2
20260506081757 21 157 4.8 12.9 0.00 0.00 0.00 58 1014.3
20260506081257 21 157 8.0 16.1 0.00 0.00 0.00 56 1014.3
20260506080757 21 157 6.4 14.5 0.00 0.00 0.00 56 1014.3
20260506080257 21 157 4.8 9.7 0.00 0.00 0.00 57 1014.2
20260506073257 20 135 6.4 9.7 0.00 0.00 0.00 54 1014.1
20260506072757 21 112 8.0 14.5 0.00 0.00 0.00 54 1014.1
20260506072257 21 157 6.4 11.3 0.00 0.00 0.00 54 1014.1
20260506071757 21 112 6.4 9.7 0.00 0.00 0.00 53 1014.0
20260506071257 21 157 9.7 9.7 0.00 0.00 0.00 53 1014.0
20260506070757 21 157 3.2 9.7 0.00 0.00 0.00 52 1013.9
20260506070257 21 157 6.4 9.7 0.00 0.00 0.00 50 1013.8
20260506062257 25 157 1.6 4.8 0.00 0.00 0.00 37 1013.5
20260506061757 25 157 1.6 4.8 0.00 0.00 0.00 39 1013.5
20260506061257 25 135 0.0 3.2 0.00 0.00 0.00 38 1013.3
20260506060757 25 157 3.2 3.2 0.00 0.00 0.00 39 1013.4
20260506060257 25 180 1.6 3.2 0.00 0.00 0.00 40 1013.3
20260506051257 20 292 0.0 1.6 0.00 0.00 0.00 49 1013.1
20260506050757 21 247 0.0 1.6 0.00 0.00 0.00 48 1013.2
20260506050257 21 270 0.0 1.6 0.00 0.00 0.00 48 1013.1
20260506044757 18 22 0.0 0.0 0.00 0.00 0.00 55 1013.0
20260506044257 17 0 0.0 0.0 0.00 0.00 0.00 58 1012.9
20260506043757 16 0 0.0 0.0 0.00 0.00 0.00 61 1013.0
20260506043257 15 0 0.0 1.6 0.00 0.00 0.00 64 1012.9
20260506042757 15 22 0.0 1.6 0.00 0.00 0.00 65 1013.0
20260506042257 14 22 0.0 3.2 0.00 0.00 0.00 67 1012.9
20260506041757 13 22 0.0 3.2 0.00 0.00 0.00 68 1012.9